Weather reports worldwide

Advertisment
Manresa, Spain (8174): temperature & dewpoint: 24.09.2020 23:00:00 - 30.09.2020 23:00:00 (CEST)Manresa, Spain (8174): wind speed & gusts: 24.09.2020 23:00:00 - 30.09.2020 23:00:00 (CEST)Manresa, Spain (8174): wind direction: 24.09.2020 23:00:00 - 30.09.2020 23:00:00 (CEST)Manresa, Spain (8174): reduced air pressure: 24.09.2020 23:00:00 - 30.09.2020 23:00:00 (CEST)Manresa, Spain (8174): visibility: 24.09.2020 23:00:00 - 30.09.2020 23:00:00 (CEST)Manresa, Spain (8174): sunshine duration: 24.09.2020 23:00:00 - 30.09.2020 23:00:00 (CEST)Manresa, Spain (8174): precipitation: 24.09.2020 23:00:00 - 30.09.2020 23:00:00 (CEST)
Date & Time tt [°C] td [°C] ff [km/h] ff [kn] fx [km/h] fx [kn] dd ppp [hPa] vv [km] sd [min] rr [mm]
30.09.2020 23:00:00 - - - - - - - - - - -
30.09.2020 22:00:00 - - - - - - - - - - -
30.09.2020 21:00:00 - - - - - - - - - - -
30.09.2020 20:00:00 20,9 13,6 9 5 21 11 S 1012,8 20 46 -
30.09.2020 19:00:00 23,0 12,6 13 7 27 14 SSW 1012,1 20 60 0,0
30.09.2020 18:00:00 - - - - - - - - - - -
30.09.2020 17:00:00 - - - - - - - - - - -
30.09.2020 16:00:00 - - - - - - - - - - -
30.09.2020 15:00:00 - - - - - - - - - - -
30.09.2020 14:00:00 23,2 8,1 4 2 10 5 S 1014,9 20 60 -
30.09.2020 13:00:00 - - - - - - - - - - -
30.09.2020 12:00:00 - - - - - - - - - - -
30.09.2020 11:00:00 - - - - - - - - - - -
30.09.2020 10:00:00 - - - - - - - - - - -
30.09.2020 09:00:00 - - - - - - - - - - -
30.09.2020 08:00:00 8,0 5,1 2 1 5 3 WNW 1018,2 20 0 -
30.09.2020 07:00:00 - - - - - - - - - - -
30.09.2020 06:00:00 9,0 5,1 1 1 5 3 NW 1017,9 20 0 0,0
30.09.2020 05:00:00 - - - - - - - - - - -
30.09.2020 04:00:00 10,0 5,8 3 1 6 3 W 1018,5 20 0 0,0
30.09.2020 03:00:00 11,1 6,2 2 1 5 3 N 1018,8 20 0 0,0
30.09.2020 02:00:00 12,0 6,5 2 1 6 3 NNE 1018,9 20 0 -
30.09.2020 01:00:00 13,0 7,4 3 1 5 3 NW 1018,8 20 0 0,0
30.09.2020 00:00:00 14,5 9,3 3 1 7 4 NNE 1018,8 20 0 0,0
29.09.2020 23:00:00 - - - - - - - - - - -
29.09.2020 22:00:00 - - - - - - - - - - -
29.09.2020 21:00:00 18,9 9,0 6 3 24 13 SSW 1017,2 20 0 0,0
29.09.2020 20:00:00 20,8 8,4 11 6 28 15 S 1016,5 20 29 -
29.09.2020 19:00:00 - - - - - - - - - - -
29.09.2020 18:00:00 24,9 8,0 11 6 21 11 SSW 1015,4 20 60 0,0
29.09.2020 17:00:00 - - - - - - - - - - -
29.09.2020 16:00:00 - - - - - - - - - - -
29.09.2020 15:00:00 24,2 7,3 5 3 14 7 SSW 1017,4 20 60 0,0
29.09.2020 14:00:00 22,3 7,7 5 3 10 5 S 1018,8 20 60 -
29.09.2020 13:00:00 18,4 7,4 3 2 7 4 NE 1020,0 20 54 0,0
29.09.2020 12:00:00 - - - - - - - - - - -
29.09.2020 11:00:00 13,5 7,7 4 2 7 4 W 1021,4 20 60 0,0
29.09.2020 10:00:00 10,5 7,4 2 1 9 5 W 1021,5 20 6 0,0
29.09.2020 09:00:00 9,4 6,7 3 2 10 5 N 1021,2 20 0 0,0
29.09.2020 08:00:00 9,2 7,0 6 3 8 4 NNE 1020,7 20 0 -
29.09.2020 07:00:00 8,6 6,1 3 2 4 2 W 1020,5 20 0 0,0
29.09.2020 06:00:00 9,4 7,0 3 1 7 4 NNE 1020,3 20 0 0,0
29.09.2020 05:00:00 10,0 7,3 3 2 7 4 N 1020,1 20 0 0,0
29.09.2020 04:00:00 10,7 7,7 2 1 6 3 N 1020,4 20 0 0,0
29.09.2020 03:00:00 11,4 7,6 2 1 7 4 NNE 1020,0 20 0 0,0
29.09.2020 02:00:00 12,2 7,8 4 2 10 5 NE 1019,9 20 0 -
29.09.2020 01:00:00 - - - - - - - - - - -
29.09.2020 00:00:00 14,1 7,0 3 2 5 3 WNW 1019,3 20 0 0,0
28.09.2020 23:00:00 15,7 7,4 1 1 9 5 S 1018,4 20 0 0,0
28.09.2020 22:00:00 17,9 9,6 7 4 16 9 SSW 1017,3 20 0 0,0
28.09.2020 21:00:00 - - - - - - - - - - -
28.09.2020 20:00:00 21,3 6,4 6 3 20 11 W 1015,3 20 50 -
28.09.2020 19:00:00 - - - - - - - - - - -
28.09.2020 18:00:00 - - - - - - - - - - -
28.09.2020 17:00:00 23,9 5,8 11 6 22 12 W 1013,4 20 60 0,0
28.09.2020 16:00:00 - - - - - - - - - - -
28.09.2020 15:00:00 - - - - - - - - - - -
28.09.2020 14:00:00 20,1 5,8 15 8 25 13 WNW 1015,1 20 60 -
28.09.2020 13:00:00 - - - - - - - - - - -
28.09.2020 12:00:00 - - - - - - - - - - -
28.09.2020 11:00:00 14,4 5,9 7 4 14 7 NE 1015,8 20 60 0,0
28.09.2020 10:00:00 12,0 5,8 6 4 11 6 NE 1015,9 20 29 0,0
28.09.2020 09:00:00 8,8 4,6 3 2 8 5 NW 1015,8 20 0 0,0
28.09.2020 08:00:00 9,0 5,0 5 3 9 5 NE 1015,2 20 0 -
28.09.2020 07:00:00 - - - - - - - - - - -
28.09.2020 06:00:00 - - - - - - - - - - -
28.09.2020 05:00:00 - - - - - - - - - - -
28.09.2020 04:00:00 12,0 4,3 2 1 6 3 N 1014,0 20 0 0,0
28.09.2020 03:00:00 - - - - - - - - - - -
28.09.2020 02:00:00 12,4 3,4 5 3 13 7 W 1014,1 20 0 -
28.09.2020 01:00:00 13,1 2,9 7 4 16 9 SW 1013,8 20 0 0,0
28.09.2020 00:00:00 13,9 2,7 8 4 21 12 W 1013,3 20 0 0,0
27.09.2020 23:00:00 14,9 2,5 8 5 19 11 WNW 1012,6 20 0 0,0
27.09.2020 22:00:00 - - - - - - - - - - -
27.09.2020 21:00:00 17,7 0,9 12 6 34 18 WSW 1010,6 20 0 0,0
27.09.2020 20:00:00 19,2 -1,4 13 7 39 21 WSW 1009,7 20 52 -
27.09.2020 19:00:00 - - - - - - - - - - -
27.09.2020 18:00:00 - - - - - - - - - - -
27.09.2020 17:00:00 19,1 -1,0 5 3 23 12 SW 1009,2 20 15 0,0
27.09.2020 16:00:00 17,2 -0,5 6 3 24 13 SW 1009,7 20 14 0,0
27.09.2020 15:00:00 - - - - - - - - - - -
27.09.2020 14:00:00 14,2 0,4 16 9 31 17 W 1011,6 20 0 -
27.09.2020 13:00:00 12,6 1,1 13 7 31 17 WNW 1011,8 20 0 0,0
27.09.2020 12:00:00 13,0 0,4 14 8 29 16 W 1011,1 20 5 0,0
27.09.2020 11:00:00 - - - - - - - - - - -
27.09.2020 10:00:00 - - - - - - - - - - -
27.09.2020 09:00:00 8,9 2,7 4 2 11 6 W 1010,1 20 0 0,0
27.09.2020 08:00:00 10,1 1,9 3 2 12 6 E 1008,3 20 0 -
27.09.2020 07:00:00 - - - - - - - - - - -
27.09.2020 06:00:00 12,8 1,7 8 5 21 11 NNE 1006,8 20 0 0,0
27.09.2020 05:00:00 - - - - - - - - - - -
27.09.2020 04:00:00 13,3 10,3 5 3 11 6 NNE 1005,0 20 0 0,0
27.09.2020 03:00:00 - - - - - - - - - - -
27.09.2020 02:00:00 15,7 10,9 16 9 35 19 WNW 1004,8 20 0 -
27.09.2020 01:00:00 15,6 10,4 12 7 36 19 W 1004,7 20 0 0,0
27.09.2020 00:00:00 16,1 9,9 16 9 51 27 W 1005,9 20 0 0,0
26.09.2020 23:00:00 - - - - - - - - - - -
26.09.2020 22:00:00 17,1 8,0 19 10 46 25 W 1006,4 20 0 0,0
26.09.2020 21:00:00 17,1 8,0 22 12 45 24 W 1007,1 20 0 0,0
26.09.2020 20:00:00 18,0 7,4 21 11 49 26 W 1007,6 20 43 -
26.09.2020 19:00:00 20,8 6,4 21 12 49 27 W 1007,8 20 60 0,0
26.09.2020 18:00:00 - - - - - - - - - - -
26.09.2020 17:00:00 23,1 3,0 14 8 33 18 W 1008,9 20 60 0,0
26.09.2020 16:00:00 22,1 3,2 14 8 31 17 WSW 1009,9 20 58 0,0
26.09.2020 15:00:00 - - - - - - - - - - -
26.09.2020 14:00:00 19,9 2,7 14 8 26 14 W 1012,4 20 60 -
26.09.2020 13:00:00 17,8 4,6 5 3 18 10 S 1013,3 20 60 0,0
26.09.2020 12:00:00 15,5 5,1 4 2 11 6 NNW 1014,1 20 60 0,0
26.09.2020 11:00:00 - - - - - - - - - - -
26.09.2020 10:00:00 - - - - - - - - - - -
26.09.2020 09:00:00 7,1 4,1 6 3 13 7 NE 1015,6 20 0 0,0
26.09.2020 08:00:00 7,7 4,1 4 2 13 7 ENE 1015,3 20 0 -
26.09.2020 07:00:00 8,7 4,3 3 2 9 5 NE 1015,5 20 0 0,0
26.09.2020 06:00:00 9,1 4,1 4 2 8 4 SE 1015,6 20 0 0,0
26.09.2020 05:00:00 10,1 4,5 4 2 10 5 N 1015,4 20 0 0,0
26.09.2020 04:00:00 10,4 4,5 4 2 13 7 NE 1016,1 20 0 0,0
26.09.2020 03:00:00 10,8 3,8 4 2 27 15 E 1016,0 20 0 0,0
26.09.2020 02:00:00 11,5 3,6 11 6 30 16 W 1015,9 20 0 -
26.09.2020 01:00:00 11,9 3,9 16 9 36 19 W 1016,2 20 0 0,0
26.09.2020 00:00:00 12,5 3,9 17 9 37 20 W 1016,1 20 0 0,0
25.09.2020 23:00:00 - - - - - - - - - - -
25.09.2020 22:00:00 - - - - - - - - - - -
25.09.2020 21:00:00 15,2 2,1 17 9 43 23 W 1014,4 20 0 0,0
25.09.2020 20:00:00 16,5 2,5 22 12 54 29 W 1013,2 20 57 -
25.09.2020 19:00:00 - - - - - - - - - - -
25.09.2020 18:00:00 - - - - - - - - - - -
25.09.2020 17:00:00 - - - - - - - - - - -
25.09.2020 16:00:00 - - - - - - - - - - -
25.09.2020 15:00:00 - - - - - - - - - - -
25.09.2020 14:00:00 19,3 1,3 26 14 55 30 WNW 1011,0 20 60 -
25.09.2020 13:00:00 - - - - - - - - - - -
25.09.2020 12:00:00 - - - - - - - - - - -
25.09.2020 11:00:00 17,0 2,3 24 13 46 25 WNW 1009,9 20 60 0,0
25.09.2020 10:00:00 15,6 3,8 25 14 52 28 WNW 1009,5 20 35 0,0
25.09.2020 09:00:00 - - - - - - - - - - -
25.09.2020 08:00:00 15,8 5,1 18 10 41 22 W 1008,5 20 0 -
25.09.2020 07:00:00 16,4 5,9 16 8 35 19 W 1008,6 20 0 0,0
25.09.2020 06:00:00 - - - - - - - - - - -
25.09.2020 05:00:00 17,0 6,8 10 5 23 12 W 1008,6 20 0 0,0
25.09.2020 04:00:00 - - - - - - - - - - -
25.09.2020 03:00:00 - - - - - - - - - - -
25.09.2020 02:00:00 18,1 10,4 9 5 16 9 WSW 1009,1 20 0 -
25.09.2020 01:00:00 18,4 11,7 4 2 9 5 S 1009,6 20 0 0,0
25.09.2020 00:00:00 19,0 12,0 6 3 14 8 SSW 1009,8 20 0 0,0
24.09.2020 23:00:00 - - - - - - - - - - -

tt = temperature
td = dewpoint
ff = wind speed
fx = gusts
dd = wind direction
ppp = reduced air pressure
vv = visibility
sd = sunshine duration
rr = precipitation

Next stations